Regional Weather Roundup
Issued by NWS Memphis, TN

Home | Current Version | Previous Version | Text Only | Print | Product List | Glossary On
Versions: 1 2 3 4 5 6 7 8 9 10 11 12 13 14 15 16 17 18 19 20 21 22 23 24 25 26 27 28 29 30 31 32 33 34 35 36 37 38 39 40 41 42 43 44 45 46 47 48 49 50
000
ASUS44 KMEG 050510
RWRMEG
MEMPHIS CWA HOURLY WEATHER ROUNDUP
NATIONAL WEATHER SERVICE MEMPHIS TN
1100 PM CST SUN DEC 04 2016

...WEST TENNESSEE...

CITY           SKY/WX    TMP DP  RH WIND       PRES   REMARKS
MEMPHIS INTL   CLOUDY    45  40  82 N8        30.06S
NWS MEMPHIS      N/A     44 N/A N/A MISG        N/A
JACKSON        CLOUDY    44  42  93 N5        30.06F
LEXINGTON      CLOUDY    45  43  93 N5        30.05R
DYERSBURG      CLOUDY   N/A N/A N/A E3        30.07S
UNION CITY     CLOUDY    43  37  81 N6        30.07R
PARIS          CLOUDY    39  37  93 CALM      30.07R
HUNTINGDON     CLOUDY    43  39  87 CALM      30.06R


...EASTERN ARKANSAS...

CITY           SKY/WX    TMP DP  RH WIND       PRES   REMARKS
JONESBORO      CLOUDY    42  40  92 CALM      30.08R
WEST MEMPHIS   CLOUDY    45  41  86 CALM      30.08R
BATESVILLE     PTCLDY    39  37  93 CALM      30.08R
NEWPORT        CLOUDY    42  40  92 CALM      30.08R
WALNUT RIDGE   PTCLDY    41  37  87 CALM      30.07R
BLYTHEVILLE    CLOUDY    45  40  82 NE6       30.08S
STUTTGART      CLOUDY    45  39  81 NE5       30.08R
PINE BLUFF     CLOUDY    46  43  89 NE3       30.08R
MONTICELLO     CLOUDY    45  43  93 CALM      30.07R


...NORTH MISSISSIPPI...

CITY           SKY/WX    TMP DP  RH WIND       PRES   REMARKS
TUPELO         CLOUDY    47  44  90 NW10      30.03F
OXFORD         CLOUDY    45  41  87 NE3       30.06F
BATESVILLE     CLOUDY    46  43  91 CALM      30.08R
TUNICA         CLOUDY    43  41  93 N6        30.08R
CLARKSDALE     CLOUDY    46  46 100 NE5       30.08S
CORINTH        CLOUDY    46  43  87 CALM      30.05R
GREENWOOD      CLOUDY    47  43  86 N8        30.04S
COLUMBUS       CLOUDY    49  47  93 N7        30.01S
STARKVILLE     CLOUDY    46  46 100 N5        30.03F
GOLDEN TRIANGL CLOUDY    48  45  87 N7        29.98S


...SOUTHEAST MISSOURI...

CITY           SKY/WX    TMP DP  RH WIND       PRES   REMARKS
KENNETT        CLOUDY    45  39  81 NE6       30.06S
WEST PLAINS    CLOUDY    31  30  96 CALM      30.05R FOG
POPLAR BLUFF   CLOUDY    41  40  96 CALM      30.06R
CAPE GIRARDEAU CLOUDY    42  36  79 N7        30.06S


...NORTHWEST ALABAMA...

CITY           SKY/WX    TMP DP  RH WIND       PRES   REMARKS
MUSCLE SHOALS  CLOUDY    49  46  90 NW3       30.04S


...MIDDLE TENNESSEE...

CITY           SKY/WX    TMP DP  RH WIND       PRES   REMARKS
NASHVILLE      CLOUDY    47  44  90 CALM      30.05R
CLARKSVILLE    CLOUDY    44  40  85 NW10      30.06R
COLUMBIA       CLOUDY   N/A N/A N/A NW3       30.03R


...WESTERN KENTUCKY...

CITY           SKY/WX    TMP DP  RH WIND       PRES   REMARKS
PADUCAH        CLOUDY    42  36  79 CALM      30.06R
FORT CAMPBELL  CLOUDY    43  40  88 NW6       30.05R


...CENTRAL ARKANSAS...

CITY           SKY/WX    TMP DP  RH WIND       PRES   REMARKS
LITTLE ROCK    CLOUDY    42  42 100 CALM      30.07S


SKY/WX REPORTED AS FAIR MEANS FEW OR NO CLOUDS BELOW
12 THOUSAND FEET.





USA.gov is the U.S. government's official web portal to all federal, state and local government web resources and services.